STARLINK-32921 (62920 NORAD) Tracking and Keplerian Element Data

This shows tracking and keplerian element data for the satellite.

Feedback or suggestion? Click here.




ElementValue
Catalog62920
NameSTARLINK-32921
Epoch Orbit4936
Epoch Day354.04768677
Epoch Year2025
RAAN218.5133
Inclination42.9996
Eccentricity0.0001448
Argument of Perigee273.649
Mean Anonmoly86.4196
Mean Motion15.2759029
Decay Rate0.00010277
L11 62920U 25027P 25354.04768677 .00010277 00000+0 38233-3 0 9997
L22 62920 42.9996 218.5133 0001448 273.6490 86.4196 15.27590290 49367



Live tracking and technical data element details for STARLINK-32921 (NORAD 62920). STARLINK-32921 can be tracked NOW for your location showing map with azimuth and elevation plus other details from your city location.







IsCatalogInMostPopularTable: catalog: 62920, numindb: 2
Update: records affected: 1



GetName: 62920 STARLINK-32921

Hit Count: updated at: Mon, 09 Feb 2026 09:38:22 GMT